| time (UTC) | temp F | wind direction | speed MPH | gust MPH | rain 1hr in | rain 24hr in | rain mn in | humidity % | barometer mb |
| 20260505171003 | 40 | 250 | 3.0 | 10.0 | 0.00 | 0.00 | 0.00 | 49 | 996.7 |
| 20260505170506 | 40 | 289 | 4.0 | 10.0 | 0.00 | 0.00 | 0.00 | 48 | 996.6 |
| 20260505170003 | 40 | 264 | 5.0 | 12.0 | 0.00 | 0.00 | 0.00 | 48 | 996.6 |
| 20260505165503 | 40 | 299 | 6.0 | 14.0 | 0.00 | 0.00 | 0.00 | 47 | 996.7 |
| 20260505164504 | 41 | 308 | 5.0 | 7.0 | 0.00 | 0.00 | 0.00 | 45 | 996.5 |
| 20260505164004 | 42 | 309 | 5.0 | 9.0 | 0.00 | 0.00 | 0.00 | 43 | 996.4 |
| 20260505163003 | 42 | 274 | 0.0 | 5.0 | 0.00 | 0.00 | 0.00 | 44 | 996.3 |
| 20260505162503 | 41 | 289 | 5.0 | 8.0 | 0.00 | 0.00 | 0.00 | 45 | 996.4 |
| 20260505162003 | 41 | 292 | 0.0 | 0.0 | 0.00 | 0.00 | 0.00 | 45 | 996.4 |
| 20260505161504 | 42 | 264 | 3.0 | 12.0 | 0.00 | 0.00 | 0.00 | 45 | 996.4 |
| 20260505161003 | 42 | 317 | 7.0 | 15.0 | 0.00 | 0.00 | 0.00 | 44 | 996.5 |
| 20260505153003 | 41 | 308 | 6.0 | 10.0 | 0.00 | 0.00 | 0.00 | 41 | 996.2 |
| 20260505152504 | 42 | 299 | 7.0 | 15.0 | 0.00 | 0.00 | 0.00 | 40 | 996.1 |
| 20260505152003 | 42 | 299 | 2.0 | 8.0 | 0.00 | 0.00 | 0.00 | 41 | 996.1 |
| 20260505151503 | 41 | 306 | 10.0 | 18.0 | 0.00 | 0.00 | 0.00 | 41 | 996.1 |
| 20260505151003 | 41 | 290 | 6.0 | 12.0 | 0.00 | 0.00 | 0.00 | 42 | 996.1 |
| 20260505140503 | 41 | 280 | 3.0 | 8.0 | 0.00 | 0.00 | 0.00 | 48 | 995.9 |
| 20260505125004 | 46 | 302 | 12.0 | 20.0 | 0.00 | 0.00 | 0.00 | 35 | 994.9 |
| 20260505124503 | 45 | 253 | 8.0 | 14.0 | 0.00 | 0.00 | 0.00 | 36 | 994.8 |
| 20260505124004 | 45 | 297 | 8.0 | 18.0 | 0.00 | 0.00 | 0.00 | 36 | 994.8 |
| 20260505123503 | 45 | 308 | 6.0 | 16.0 | 0.00 | 0.00 | 0.00 | 35 | 994.9 |
| 20260505123003 | 46 | 301 | 7.0 | 12.0 | 0.00 | 0.00 | 0.00 | 36 | 994.8 |
| 20260505122003 | 44 | 310 | 6.0 | 13.0 | 0.00 | 0.00 | 0.00 | 38 | 994.8 |
| 20260505121503 | 45 | 301 | 10.0 | 16.0 | 0.00 | 0.00 | 0.00 | 37 | 994.8 |
| 20260505121003 | 45 | 264 | 6.0 | 15.0 | 0.00 | 0.00 | 0.00 | 38 | 994.7 |
| 20260505120503 | 44 | 292 | 7.0 | 15.0 | 0.00 | 0.00 | 0.00 | 38 | 994.6 |
| 20260505120003 | 45 | 284 | 9.0 | 14.0 | 0.00 | 0.00 | 0.00 | 36 | 994.7 |
| 20260505115503 | 45 | 326 | 7.0 | 12.0 | 0.00 | 0.00 | 0.00 | 37 | 994.6 |
| 20260505115003 | 45 | 271 | 7.0 | 20.0 | 0.00 | 0.00 | 0.00 | 36 | 994.6 |
| 20260505114503 | 45 | 303 | 12.0 | 21.0 | 0.00 | 0.00 | 0.00 | 37 | 994.6 |
| 20260505114003 | 45 | 326 | 7.0 | 15.0 | 0.00 | 0.00 | 0.00 | 35 | 994.6 |
| 20260505113503 | 45 | 311 | 6.0 | 14.0 | 0.00 | 0.00 | 0.00 | 37 | 994.5 |
| 20260505113003 | 44 | 311 | 9.0 | 17.0 | 0.00 | 0.00 | 0.00 | 37 | 994.5 |
| 20260505112503 | 44 | 297 | 6.0 | 12.0 | 0.00 | 0.00 | 0.00 | 39 | 994.5 |
| 20260505112004 | 44 | 332 | 10.0 | 17.0 | 0.00 | 0.00 | 0.00 | 40 | 994.5 |
| 20260505111503 | 43 | 318 | 10.0 | 16.0 | 0.00 | 0.00 | 0.00 | 41 | 994.4 |
| 20260505110504 | 45 | 312 | 9.0 | 16.0 | 0.00 | 0.00 | 0.00 | 37 | 994.4 |
| 20260505102003 | 43 | 303 | 8.0 | 14.0 | 0.00 | 0.04 | 0.00 | 41 | 994.1 |
| 20260505101504 | 43 | 298 | 10.0 | 18.0 | 0.00 | 0.04 | 0.00 | 39 | 994.1 |
| 20260505101003 | 44 | 292 | 7.0 | 16.0 | 0.00 | 0.04 | 0.00 | 39 | 994.0 |
| 20260505100503 | 44 | 314 | 7.0 | 15.0 | 0.00 | 0.04 | 0.00 | 41 | 993.9 |
| 20260505100004 | 44 | 304 | 9.0 | 13.0 | 0.00 | 0.04 | 0.00 | 40 | 993.8 |
| 20260505095503 | 44 | 283 | 6.0 | 14.0 | 0.00 | 0.04 | 0.00 | 42 | 993.8 |
| 20260505094504 | 43 | 314 | 9.0 | 16.0 | 0.00 | 0.04 | 0.00 | 42 | 993.7 |
| 20260505094003 | 43 | 308 | 7.0 | 13.0 | 0.00 | 0.04 | 0.00 | 43 | 993.8 |
| 20260505093504 | 43 | 314 | 10.0 | 14.0 | 0.00 | 0.04 | 0.00 | 42 | 993.8 |
| 20260505093004 | 43 | 320 | 5.0 | 12.0 | 0.00 | 0.04 | 0.00 | 44 | 993.8 |
| 20260505092503 | 44 | 338 | 9.0 | 16.0 | 0.00 | 0.04 | 0.00 | 40 | 993.7 |
| 20260505092005 | 44 | 311 | 7.0 | 13.0 | 0.00 | 0.04 | 0.00 | 42 | 993.6 |
| 20260505091004 | 43 | 304 | 12.0 | 18.0 | 0.00 | 0.04 | 0.00 | 41 | 993.6 |
| 20260505090504 | 44 | 292 | 10.0 | 24.0 | 0.00 | 0.04 | 0.00 | 41 | 993.6 |
| 20260505085503 | 43 | 283 | 6.0 | 14.0 | 0.00 | 0.04 | 0.00 | 43 | 993.5 |
| 20260505085004 | 43 | 309 | 6.0 | 13.0 | 0.00 | 0.04 | 0.00 | 44 | 993.5 |
| 20260505084503 | 42 | 259 | 7.0 | 12.0 | 0.00 | 0.04 | 0.00 | 45 | 993.4 |
| 20260505084004 | 43 | 337 | 6.0 | 15.0 | 0.00 | 0.04 | 0.00 | 44 | 993.5 |
| 20260505083503 | 42 | 336 | 10.0 | 16.0 | 0.00 | 0.04 | 0.00 | 44 | 993.4 |
| 20260505082003 | 42 | 293 | 10.0 | 17.0 | 0.00 | 0.04 | 0.00 | 46 | 993.3 |
| 20260505081504 | 42 | 318 | 6.0 | 15.0 | 0.00 | 0.04 | 0.00 | 46 | 993.2 |
| 20260505080503 | 41 | 286 | 9.0 | 13.0 | 0.00 | 0.04 | 0.00 | 47 | 993.2 |
| 20260505080003 | 42 | 325 | 9.0 | 17.0 | 0.00 | 0.04 | 0.00 | 45 | 993.1 |
| 20260505075504 | 42 | 305 | 6.0 | 12.0 | 0.00 | 0.04 | 0.00 | 46 | 993.2 |
| 20260505075004 | 42 | 316 | 3.0 | 12.0 | 0.00 | 0.04 | 0.00 | 47 | 993.2 |
| 20260505074504 | 41 | 329 | 7.0 | 15.0 | 0.00 | 0.04 | 0.00 | 47 | 993.1 |
| 20260505074004 | 41 | 316 | 7.0 | 15.0 | 0.00 | 0.04 | 0.00 | 49 | 993.1 |
| 20260505073503 | 41 | 311 | 9.0 | 20.0 | 0.00 | 0.04 | 0.00 | 50 | 993.1 |
| 20260505073003 | 40 | 289 | 10.0 | 16.0 | 0.00 | 0.04 | 0.00 | 50 | 993.0 |
| 20260505072503 | 40 | 314 | 10.0 | 17.0 | 0.00 | 0.04 | 0.00 | 50 | 992.9 |
| 20260505072003 | 40 | 312 | 9.0 | 15.0 | 0.00 | 0.04 | 0.00 | 50 | 992.9 |
| 20260505071504 | 39 | 302 | 9.0 | 20.0 | 0.00 | 0.04 | 0.00 | 50 | 993.0 |
| 20260505071003 | 39 | 303 | 9.0 | 16.0 | 0.00 | 0.04 | 0.00 | 50 | 993.0 |
| 20260505070503 | 40 | 305 | 11.0 | 20.0 | 0.00 | 0.04 | 0.00 | 50 | 992.9 |
| 20260505070004 | 39 | 267 | 7.0 | 13.0 | 0.00 | 0.04 | 0.00 | 53 | 992.9 |
| 20260505065503 | 39 | 320 | 9.0 | 15.0 | 0.00 | 0.04 | 0.00 | 51 | 992.9 |
| 20260505065004 | 39 | 290 | 10.0 | 17.0 | 0.00 | 0.04 | 0.00 | 53 | 993.0 |
| 20260505064503 | 39 | 312 | 10.0 | 17.0 | 0.00 | 0.04 | 0.00 | 53 | 993.0 |
| 20260505064003 | 39 | 314 | 7.0 | 16.0 | 0.00 | 0.04 | 0.00 | 54 | 992.9 |
| 20260505063504 | 39 | 298 | 12.0 | 18.0 | 0.00 | 0.04 | 0.00 | 55 | 992.9 |
| 20260505063003 | 38 | 288 | 9.0 | 18.0 | 0.00 | 0.04 | 0.00 | 55 | 992.7 |
| 20260505062503 | 38 | 303 | 7.0 | 15.0 | 0.00 | 0.04 | 0.00 | 57 | 992.7 |
| 20260505062004 | 38 | 277 | 10.0 | 17.0 | 0.00 | 0.04 | 0.00 | 57 | 992.7 |
| 20260505061503 | 38 | 315 | 10.0 | 15.0 | 0.00 | 0.04 | 0.00 | 57 | 992.7 |
| 20260505061003 | 38 | 302 | 9.0 | 14.0 | 0.00 | 0.04 | 0.00 | 58 | 992.7 |
| 20260505060504 | 37 | 297 | 6.0 | 13.0 | 0.00 | 0.04 | 0.00 | 59 | 992.7 |
| 20260505060004 | 37 | 308 | 9.0 | 15.0 | 0.00 | 0.04 | 0.00 | 59 | 992.7 |
| 20260505055504 | 37 | 296 | 9.0 | 20.0 | 0.00 | 0.05 | 0.00 | 59 | 992.6 |
| 20260505054503 | 37 | 304 | 7.0 | 16.0 | 0.00 | 0.05 | 0.00 | 61 | 992.6 |
| 20260505054003 | 36 | 288 | 7.0 | 16.0 | 0.00 | 0.05 | 0.00 | 62 | 992.6 |
| 20260505053503 | 36 | 285 | 9.0 | 15.0 | 0.00 | 0.06 | 0.00 | 62 | 992.6 |
| 20260505053004 | 36 | 295 | 10.0 | 20.0 | 0.00 | 0.06 | 0.00 | 63 | 992.5 |
| 20260505052503 | 36 | 312 | 9.0 | 13.0 | 0.00 | 0.06 | 0.00 | 63 | 992.6 |
| 20260505051503 | 35 | 290 | 9.0 | 12.0 | 0.00 | 0.07 | 0.00 | 65 | 992.6 |
| 20260505051003 | 35 | 298 | 8.0 | 12.0 | 0.00 | 0.07 | 0.00 | 65 | 992.6 |
| 20260505050503 | 35 | 299 | 6.0 | 10.0 | 0.00 | 0.07 | 0.00 | 66 | 992.5 |
| 20260505041503 | 34 | 307 | 8.0 | 13.0 | 0.00 | 0.07 | 0.00 | 68 | 992.3 |
| 20260505041003 | 34 | 287 | 6.0 | 14.0 | 0.00 | 0.07 | 0.00 | 68 | 992.3 |
| 20260505040503 | 34 | 290 | 6.0 | 12.0 | 0.00 | 0.07 | 0.00 | 68 | 992.3 |
| 20260505040004 | 34 | 308 | 7.0 | 16.0 | 0.00 | 0.07 | 0.00 | 68 | 992.2 |
| 20260505035503 | 34 | 305 | 8.0 | 12.0 | 0.00 | 0.07 | 0.00 | 69 | 992.2 |
| 20260505035003 | 34 | 283 | 7.0 | 15.0 | 0.00 | 0.07 | 0.00 | 69 | 992.1 |
| 20260505034503 | 34 | 289 | 8.0 | 13.0 | 0.00 | 0.07 | 0.00 | 69 | 992.1 |
| 20260505033503 | 33 | 296 | 4.0 | 9.0 | 0.00 | 0.07 | 0.00 | 70 | 992.1 |
| 20260505033003 | 33 | 327 | 0.0 | 8.0 | 0.00 | 0.07 | 0.00 | 72 | 992.1 |
| 20260505032503 | 33 | 292 | 6.0 | 12.0 | 0.00 | 0.07 | 0.00 | 73 | 992.1 |
| 20260505032004 | 32 | 288 | 3.0 | 9.0 | 0.00 | 0.07 | 0.00 | 74 | 992.1 |
| 20260505031503 | 32 | 272 | 2.0 | 10.0 | 0.00 | 0.07 | 0.00 | 75 | 992.1 |
| 20260505031003 | 32 | 296 | 5.0 | 8.0 | 0.00 | 0.07 | 0.00 | 75 | 992.1 |
| 20260505030004 | 31 | 288 | 5.0 | 8.0 | 0.00 | 0.07 | 0.00 | 76 | 992.1 |
| 20260505025504 | 31 | 292 | 5.0 | 9.0 | 0.00 | 0.07 | 0.00 | 76 | 992.1 |
| 20260505025003 | 31 | 310 | 5.0 | 8.0 | 0.00 | 0.07 | 0.00 | 77 | 992.1 |
| 20260505024503 | 31 | 296 | 4.0 | 8.0 | 0.00 | 0.07 | 0.00 | 77 | 992.2 |
| 20260505024003 | 31 | 274 | 5.0 | 6.0 | 0.00 | 0.07 | 0.00 | 78 | 992.1 |
| 20260505023503 | 31 | 267 | 5.0 | 12.0 | 0.00 | 0.07 | 0.00 | 78 | 992.1 |
| 20260505023004 | 30 | 293 | 5.0 | 10.0 | 0.00 | 0.07 | 0.00 | 78 | 992.1 |
| 20260505022503 | 30 | 292 | 4.0 | 10.0 | 0.00 | 0.07 | 0.00 | 78 | 992.0 |
| 20260505022003 | 30 | 288 | 4.0 | 9.0 | 0.00 | 0.07 | 0.00 | 78 | 992.0 |
| 20260505021004 | 30 | 281 | 1.0 | 6.0 | 0.00 | 0.07 | 0.00 | 79 | 991.9 |
| 20260505020503 | 30 | 284 | 4.0 | 7.0 | 0.00 | 0.07 | 0.00 | 78 | 991.9 |
| 20260505015503 | 30 | 297 | 4.0 | 7.0 | 0.00 | 0.07 | 0.00 | 79 | 991.8 |
| 20260505015004 | 30 | 288 | 0.0 | 7.0 | 0.00 | 0.07 | 0.00 | 79 | 991.7 |
| 20260505014503 | 30 | 285 | 1.0 | 9.0 | 0.00 | 0.07 | 0.00 | 79 | 991.7 |
| 20260505013503 | 30 | 282 | 0.0 | 0.0 | 0.00 | 0.07 | 0.00 | 79 | 991.7 |
| 20260505013003 | 30 | 279 | 0.0 | 0.0 | 0.00 | 0.07 | 0.00 | 79 | 991.7 |
| 20260505012503 | 30 | 269 | 0.0 | 0.0 | 0.00 | 0.07 | 0.00 | 79 | 991.6 |
| 20260505012003 | 30 | 289 | 0.0 | 0.0 | 0.00 | 0.07 | 0.00 | 79 | 991.7 |
| 20260505011503 | 30 | 292 | 0.0 | 0.0 | 0.00 | 0.07 | 0.00 | 79 | 991.7 |
| 20260505011003 | 30 | 290 | 0.0 | 0.0 | 0.00 | 0.07 | 0.00 | 79 | 991.7 |
| 20260505005503 | 30 | 291 | 0.0 | 0.0 | 0.00 | 0.07 | 0.00 | 80 | 991.7 |
| 20260505005004 | 30 | 275 | 0.0 | 0.0 | 0.00 | 0.07 | 0.00 | 80 | 991.6 |
| 20260505004504 | 30 | 292 | 0.0 | 0.0 | 0.00 | 0.07 | 0.00 | 81 | 991.6 |
| 20260505004003 | 30 | 279 | 0.0 | 0.0 | 0.00 | 0.07 | 0.00 | 81 | 991.7 |
| 20260505003503 | 30 | 288 | 0.0 | 0.0 | 0.00 | 0.07 | 0.00 | 81 | 991.6 |
| 20260505003003 | 30 | 277 | 0.0 | 0.0 | 0.00 | 0.07 | 0.00 | 81 | 991.6 |
| 20260505002503 | 30 | 283 | 0.0 | 0.0 | 0.00 | 0.07 | 0.00 | 81 | 991.6 |
| 20260505002003 | 30 | 277 | 0.0 | 0.0 | 0.00 | 0.07 | 0.00 | 81 | 991.6 |
| 20260505001503 | 30 | 289 | 0.0 | 0.0 | 0.00 | 0.07 | 0.00 | 81 | 991.6 |
| 20260505001004 | 30 | 277 | 0.0 | 0.0 | 0.00 | 0.07 | 0.00 | 81 | 991.6 |
| 20260505000503 | 30 | 285 | 0.0 | 0.0 | 0.00 | 0.07 | 0.00 | 81 | 991.6 |
| 20260505000003 | 30 | 285 | 0.0 | 0.0 | 0.00 | 0.07 | 0.00 | 81 | 991.6 |
| 20260504235504 | 30 | 272 | 0.0 | 0.0 | 0.00 | 0.07 | 0.00 | 81 | 991.5 |
| 20260504235004 | 31 | 284 | 0.0 | 0.0 | 0.00 | 0.07 | 0.00 | 81 | 991.5 |
| 20260504234504 | 31 | 273 | 0.0 | 0.0 | 0.00 | 0.07 | 0.00 | 81 | 991.4 |
| 20260504234005 | 30 | 270 | 0.0 | 0.0 | 0.00 | 0.07 | 0.00 | 81 | 991.4 |
| 20260504233504 | 30 | 284 | 0.0 | 0.0 | 0.00 | 0.07 | 0.00 | 82 | 991.3 |
| 20260504232504 | 29 | 278 | 0.0 | 0.0 | 0.00 | 0.07 | 0.00 | 83 | 991.3 |
| 20260504232009 | 29 | 279 | 0.0 | 0.0 | 0.00 | 0.07 | 0.00 | 82 | 991.2 |
| 20260504231503 | 30 | 279 | 0.0 | 0.0 | 0.00 | 0.07 | 0.00 | 81 | 991.3 |
| 20260504231003 | 30 | 279 | 0.0 | 0.0 | 0.00 | 0.07 | 0.00 | 82 | 991.3 |
| 20260504230004 | 30 | 279 | 0.0 | 0.0 | 0.00 | 0.07 | 0.00 | 79 | 991.2 |
| 20260504225503 | 31 | 278 | 0.0 | 0.0 | 0.00 | 0.07 | 0.00 | 79 | 991.2 |
| 20260504225004 | 31 | 278 | 0.0 | 0.0 | 0.00 | 0.07 | 0.00 | 79 | 991.3 |
| 20260504224504 | 31 | 278 | 0.0 | 0.0 | 0.00 | 0.07 | 0.00 | 79 | 991.2 |
| 20260504224003 | 32 | 280 | 0.0 | 0.0 | 0.00 | 0.07 | 0.00 | 78 | 991.2 |
| 20260504223004 | 32 | 283 | 0.0 | 0.0 | 0.00 | 0.07 | 0.00 | 77 | 991.1 |
| 20260504222503 | 33 | 284 | 0.0 | 0.0 | 0.00 | 0.07 | 0.00 | 75 | 991.2 |
| 20260504222003 | 33 | 284 | 0.0 | 0.0 | 0.00 | 0.07 | 0.00 | 76 | 991.1 |
| 20260504221503 | 33 | 288 | 0.0 | 0.0 | 0.00 | 0.07 | 0.00 | 75 | 991.1 |
| 20260504221003 | 34 | 285 | 0.0 | 0.0 | 0.00 | 0.07 | 0.00 | 75 | 991.1 |
| 20260504220504 | 34 | 272 | 0.0 | 0.0 | 0.00 | 0.07 | 0.00 | 81 | 991.1 |
| 20260504220003 | 34 | 288 | 0.0 | 0.0 | 0.00 | 0.07 | 0.00 | 76 | 991.1 |
| 20260504215503 | 34 | 296 | 0.0 | 0.0 | 0.00 | 0.07 | 0.07 | 77 | 991.1 |
| 20260504215003 | 34 | 292 | 0.0 | 0.0 | 0.00 | 0.07 | 0.07 | 76 | 991.1 |
| 20260504214503 | 34 | 268 | 0.0 | 0.0 | 0.00 | 0.07 | 0.07 | 77 | 991.1 |
| 20260504214004 | 33 | 254 | 0.0 | 0.0 | 0.00 | 0.07 | 0.07 | 76 | 991.1 |
| 20260504213503 | 33 | 270 | 0.0 | 0.0 | 0.00 | 0.07 | 0.07 | 76 | 991.1 |
| 20260504213003 | 33 | 261 | 0.0 | 0.0 | 0.00 | 0.07 | 0.07 | 76 | 991.1 |
| 20260504212003 | 34 | 247 | 0.0 | 5.0 | 0.00 | 0.07 | 0.07 | 76 | 991.1 |
| 20260504211504 | 34 | 230 | 1.0 | 7.0 | 0.00 | 0.07 | 0.07 | 75 | 991.1 |
| 20260504211003 | 34 | 256 | 0.0 | 0.0 | 0.00 | 0.07 | 0.07 | 75 | 991.1 |
| 20260504210503 | 34 | 283 | 1.0 | 9.0 | 0.00 | 0.07 | 0.07 | 75 | 991.1 |
| 20260504210004 | 34 | 261 | 0.0 | 0.0 | 0.00 | 0.07 | 0.07 | 75 | 991.0 |
| 20260504205503 | 34 | 275 | 2.0 | 9.0 | 0.00 | 0.07 | 0.07 | 75 | 991.1 |
| 20260504205003 | 34 | 271 | 0.0 | 0.0 | 0.00 | 0.07 | 0.07 | 75 | 991.1 |
| 20260504204503 | 34 | 275 | 0.0 | 0.0 | 0.00 | 0.07 | 0.07 | 73 | 991.1 |
| 20260504204004 | 34 | 272 | 0.0 | 0.0 | 0.00 | 0.07 | 0.07 | 73 | 991.0 |
| 20260504203504 | 35 | 264 | 0.0 | 0.0 | 0.00 | 0.07 | 0.07 | 72 | 990.9 |
| 20260504203003 | 35 | 259 | 0.0 | 0.0 | 0.00 | 0.07 | 0.07 | 71 | 991.0 |
| 20260504202503 | 35 | 280 | 0.0 | 0.0 | 0.00 | 0.07 | 0.07 | 70 | 990.9 |
| 20260504202003 | 36 | 242 | 0.0 | 0.0 | 0.00 | 0.07 | 0.07 | 69 | 990.9 |
| 20260504201504 | 36 | 237 | 0.0 | 0.0 | 0.00 | 0.07 | 0.07 | 68 | 990.9 |
| 20260504200504 | 36 | 263 | 0.0 | 0.0 | 0.00 | 0.07 | 0.07 | 66 | 990.8 |
| 20260504200004 | 36 | 227 | 0.0 | 0.0 | 0.00 | 0.07 | 0.07 | 65 | 990.8 |
| 20260504195503 | 36 | 246 | 0.0 | 0.0 | 0.00 | 0.07 | 0.07 | 63 | 990.8 |
| 20260504194503 | 37 | 283 | 0.0 | 0.0 | 0.00 | 0.07 | 0.07 | 61 | 990.8 |
| 20260504194004 | 37 | 270 | 0.0 | 0.0 | 0.00 | 0.07 | 0.07 | 61 | 990.8 |
| 20260504193503 | 37 | 257 | 3.0 | 8.0 | 0.00 | 0.07 | 0.07 | 60 | 990.8 |
| 20260504193004 | 38 | 288 | 1.0 | 7.0 | 0.00 | 0.07 | 0.07 | 59 | 990.7 |
| 20260504192503 | 38 | 278 | 3.0 | 8.0 | 0.00 | 0.07 | 0.07 | 59 | 990.7 |
| 20260504192003 | 38 | 291 | 3.0 | 7.0 | 0.00 | 0.07 | 0.07 | 59 | 990.8 |
| 20260504191504 | 38 | 290 | 5.0 | 10.0 | 0.00 | 0.07 | 0.07 | 59 | 990.7 |
| 20260504191004 | 38 | 278 | 3.0 | 8.0 | 0.00 | 0.07 | 0.07 | 59 | 990.8 |
| 20260504190003 | 39 | 282 | 0.0 | 0.0 | 0.00 | 0.07 | 0.07 | 56 | 990.9 |
| 20260504185503 | 39 | 297 | 0.0 | 0.0 | 0.00 | 0.07 | 0.07 | 55 | 990.8 |
| 20260504185004 | 39 | 286 | 1.0 | 8.0 | 0.00 | 0.07 | 0.07 | 55 | 990.8 |
| 20260504184504 | 40 | 272 | 5.0 | 9.0 | 0.00 | 0.07 | 0.07 | 54 | 990.8 |
| 20260504184004 | 40 | 238 | 6.0 | 12.0 | 0.00 | 0.07 | 0.07 | 53 | 990.7 |
| 20260504183503 | 40 | 290 | 5.0 | 9.0 | 0.00 | 0.07 | 0.07 | 53 | 990.8 |
| 20260504183003 | 40 | 277 | 5.0 | 12.0 | 0.00 | 0.07 | 0.07 | 53 | 990.8 |
| 20260504182503 | 41 | 288 | 6.0 | 13.0 | 0.00 | 0.07 | 0.07 | 53 | 990.7 |
| 20260504182003 | 41 | 279 | 0.0 | 5.0 | 0.00 | 0.07 | 0.07 | 55 | 990.7 |
| 20260504181503 | 41 | 291 | 5.0 | 9.0 | 0.00 | 0.07 | 0.07 | 54 | 990.7 |
| 20260504180503 | 42 | 271 | 6.0 | 12.0 | 0.00 | 0.07 | 0.07 | 52 | 990.7 |
| 20260504180003 | 42 | 265 | 1.0 | 10.0 | 0.00 | 0.07 | 0.07 | 53 | 990.7 |
| 20260504175503 | 42 | 306 | 3.0 | 14.0 | 0.00 | 0.07 | 0.07 | 52 | 990.8 |
| 20260504175004 | 42 | 265 | 7.0 | 12.0 | 0.00 | 0.07 | 0.07 | 51 | 990.7 |
| 20260504174504 | 42 | 288 | 2.0 | 12.0 | 0.00 | 0.07 | 0.07 | 51 | 990.7 |
| 20260504174003 | 42 | 261 | 0.0 | 3.0 | 0.00 | 0.07 | 0.07 | 51 | 990.6 |
| 20260504173503 | 43 | 302 | 3.0 | 10.0 | 0.00 | 0.07 | 0.07 | 50 | 990.6 |
| 20260504173003 | 43 | 279 | 5.0 | 12.0 | 0.00 | 0.07 | 0.07 | 49 | 990.5 |
| 20260504172503 | 43 | 291 | 7.0 | 12.0 | 0.00 | 0.07 | 0.07 | 49 | 990.5 |
| 20260504172003 | 44 | 284 | 5.0 | 15.0 | 0.00 | 0.07 | 0.07 | 49 | 990.6 |
| 20260504171504 | 44 | 303 | 1.0 | 10.0 | 0.00 | 0.07 | 0.07 | 49 | 990.6 |